Charlottetown, Prince Edward Island

3:08 AM AST on February 07, 2016 (GMT -0400)
Charlottetown

Weather History for 71706 - September, 2013

Change the Weather History Date:

Sunday, September 8, 2013

  Actual Average Record
Temperature  
Mean Temperature 56 °F -  
Max Temperature 61 °F 61 °F - ()
Min Temperature 48 °F 46 °F - ()
Degree Days  
Heating Degree Days 10    
Growing Degree Days 6 (Base 50)    
Moisture  
Dew Point 55 °F    
Average Humidity 90    
Maximum Humidity 100    
Minimum Humidity 63    
Precipitation  
Precipitation 0.51 in 0.13 in - ()
Sea Level Pressure  
Sea Level Pressure 29.62 in    
Wind  
Wind Speed 11 mph ()    
Max Wind Speed 25 mph    
Max Gust Speed 43 mph    
Visibility 10.0 miles    
Events Rain    
T = Trace of Precipitation, MM = Missing Value Source: Averaged Metar Reports

Daily Weather History Graph

Daily Weather History Graph

Search for Another Location

Airport or City:

Trip Planner

Search our weather history database for the weather conditions in past years. The results will help you decide how hot, cold, wet, or windy it might be!

Date:

Astronomy

Sep. 08, 2013 Rise Set
Actual Time 6:41 AM ADT 7:37 PM ADT
Civil Twilight 6:11 AM ADT 8:07 PM ADT
Nautical Twilight 5:34 AM ADT 8:44 PM ADT
Astronomical Twilight 4:56 AM ADT 9:22 PM ADT
Moon 10:08 AM ADT (9/8) 8:54 PM ADT (9/8)
Length of Visible Light 13h 56m
Length of Day
12h 55m
Waxing Crescent, 11% of the Moon is Illuminated
Sep 8
Waxing Crescent
Sep 12
First Quarter
Sep 19
Full
Sep 27
Last Quarter
Oct 4
New

Hourly Weather History & Observations

Time (ADT) Temp. Dew Point Humidity Pressure Visibility Wind Dir Wind Speed Gust Speed Precip Events Conditions
12:00 AM 62.6 °F 50.0 °F 63% 29.75 in 15.0 mi SW 13.8 mph - N/A   Overcast
1:00 AM 62.6 °F 51.8 °F 68% 29.73 in 15.0 mi SSW 12.7 mph - N/A   Overcast
2:00 AM 60.8 °F 51.8 °F 72% 29.73 in 15.0 mi SW 12.7 mph 21.9 mph N/A   Overcast
2:12 AM 59.0 °F 53.6 °F 82% 29.73 in 15.0 mi SW 10.4 mph 18.4 mph N/A Rain Light Rain Showers
3:00 AM 58 °F 55 °F 87% 29.71 in 15 mi SW 8.1 mph - - Rain Light Rain Showers
3:00 AM 59.0 °F 55.4 °F 88% 29.71 in 15.0 mi SSW 6.9 mph - N/A Rain Light Rain Showers
4:00 AM 59.0 °F 57.2 °F 94% 29.70 in 15.0 mi SW 11.5 mph - N/A Rain Light Rain Showers
4:06 AM 59.0 °F 57.2 °F 94% 29.70 in 10.0 mi SW 9.2 mph - N/A Rain Light Rain Showers
5:00 AM 59.0 °F 57.2 °F 94% 29.68 in 10.0 mi SSW 11.5 mph - N/A Rain Light Rain Showers
6:00 AM 59.0 °F 57.2 °F 94% 29.66 in 15.0 mi SSW 16.1 mph - N/A Rain Light Rain Showers
6:44 AM 59.0 °F 57.2 °F 94% 29.66 in 3.0 mi SSW 12.7 mph 18.4 mph N/A Rain Rain Showers
7:00 AM 59.0 °F 57.2 °F 94% 29.65 in 3.0 mi SSW 13.8 mph - N/A Rain Rain Showers
7:17 AM 59.0 °F 57.2 °F 94% 29.65 in 6.0 mi SSW 12.7 mph - N/A Rain Light Rain Showers
8:00 AM 59.0 °F 57.2 °F 94% 29.64 in 10.0 mi SSW 12.7 mph 19.6 mph N/A Rain Light Rain Showers
9:00 AM 59 °F 58 °F 94% 29.62 in 12 mi SSW 12.7 mph - - Rain Light Rain Showers
9:00 AM 59.0 °F 57.2 °F 94% 29.62 in 12.0 mi SSW 12.7 mph - N/A Rain Light Rain Showers
9:41 AM 59.0 °F 57.2 °F 94% 29.62 in 12.0 mi SSW 12.7 mph - N/A Rain Light Rain Showers
10:00 AM 59.0 °F 57.2 °F 94% 29.62 in 10.0 mi SW 11.5 mph - N/A Rain Light Rain Showers
11:00 AM 60.8 °F 57.2 °F 88% 29.61 in 12.0 mi SW 10.4 mph - N/A Rain Light Rain Showers
11:44 AM 60.8 °F 57.2 °F 88% 29.59 in 15.0 mi SW 9.2 mph - N/A   Overcast
12:00 PM 60.8 °F 57.2 °F 88% 29.58 in 15.0 mi SW 9.2 mph - N/A   Overcast
12:48 PM 60.8 °F 57.2 °F 88% 29.57 in 15.0 mi SSW 10.4 mph - N/A Rain Light Rain
1:00 PM 60.8 °F 57.2 °F 88% 29.57 in 4.0 mi SSW 8.1 mph - N/A Rain Light Rain
1:08 PM 60.8 °F 57.2 °F 88% 29.56 in 4.0 mi SSW 8.1 mph - N/A Rain Rain
1:34 PM 59.0 °F 59.0 °F 100% 29.55 in 6.0 mi SW 8.1 mph - N/A Rain Rain
2:00 PM 59.0 °F 57.2 °F 94% 29.55 in 5.0 mi SW 11.5 mph 19.6 mph N/A Rain Rain
2:22 PM 59.0 °F 57.2 °F 94% 29.54 in 3.0 mi SW 10.4 mph - N/A Rain Heavy Rain
2:26 PM 59.0 °F 57.2 °F 94% 29.54 in 5.0 mi SW 12.7 mph - N/A Rain Rain
2:38 PM 59.0 °F 57.2 °F 94% 29.53 in 6.0 mi SW 11.5 mph 18.4 mph N/A Rain Light Rain
3:00 PM 59 °F 58 °F 94% 29.53 in 6 mi SW 11.5 mph - - Rain Rain
3:00 PM 59.0 °F 57.2 °F 94% 29.53 in 6.0 mi SW 12.7 mph 19.6 mph N/A Rain Rain
3:16 PM 59.0 °F 57.2 °F 94% 29.52 in 6.0 mi SSW 12.7 mph 19.6 mph N/A Rain Light Rain
3:50 PM 59.0 °F 57.2 °F 94% 29.50 in 10.0 mi WNW 16.1 mph 28.8 mph N/A Rain Light Rain Showers
4:00 PM 55.4 °F 53.6 °F 94% 29.53 in 10.0 mi NW 25.3 mph 42.6 mph N/A Rain Light Rain Showers
4:23 PM 55.4 °F 53.6 °F 94% 29.56 in 6.0 mi NNW 15.0 mph 27.6 mph N/A Rain Light Rain Showers
5:00 PM 55.4 °F 53.6 °F 94% 29.57 in 8.0 mi NNW 6.9 mph - N/A Rain Light Rain Showers
6:00 PM 53.6 °F 53.6 °F 100% 29.59 in 8.0 mi WNW 4.6 mph - N/A Rain Light Rain Showers
6:43 PM 53.6 °F 53.6 °F 100% 29.60 in 3.0 mi West 6.9 mph - N/A Rain Rain Showers
6:49 PM 53.6 °F 53.6 °F 100% 29.61 in 2.0 mi West 9.2 mph - N/A Rain Heavy Rain Showers
7:00 PM 53.6 °F 51.8 °F 94% 29.60 in 6.0 mi WNW 8.1 mph 21.9 mph N/A Rain Light Rain Showers
7:49 PM 53.6 °F 50.0 °F 88% 29.62 in 15.0 mi WNW 12.7 mph - N/A   Mostly Cloudy
8:00 PM 51.8 °F 50.0 °F 94% 29.63 in 15.0 mi WNW 12.7 mph 21.9 mph N/A   Mostly Cloudy
9:00 PM 51 °F 46 °F 78% 29.67 in 15 mi WNW 10.4 mph - -   Partly Cloudy
9:00 PM 50.0 °F 46.4 °F 87% 29.67 in 15.0 mi WNW 9.2 mph - N/A   Mostly Cloudy
10:00 PM 50.0 °F 44.6 °F 82% 29.68 in 15.0 mi West 8.1 mph - N/A   Partly Cloudy
11:00 PM 48.2 °F 44.6 °F 87% 29.70 in 15.0 mi West 10.4 mph - N/A   Scattered Clouds